Temperature
19 19 18 18 18 17 17 17 17 17 17 17 17 16 16 16 16 16 16 16 16 16 16 16 15 15 16 15 15 15 15 15 15 15 14 14 14 14 14 14 14 14 14
19 18 18 18 18 17 17 17 17 17 16 16 16 16 16 16 16 16 16 16 16 16 15 15 15 15 15 15 15 15 15 15 15 14 14 14 14 14 14 14 13 13 13
19 18 18 18 17 17 17 17 17 16 16 16 16 16 16 15 15 15 15 15 15 15 15 15 15 15 15 15 15 15 14 14 14 14 14 13 13 13 13 13 13 13 12
18 18 18 17 17 17 17 17 16 16 16 16 16 15 15 15 15 15 15 15 15 15 15 15 14 14 14 14 14 14 14 14 14 13 13 13 13 13 13 12 12 12 12
18 18 17 17 17 16 16 16 16 16 16 15 15 15 15 15 15 15 15 15 15 15 14 14 14 14 14 14 14 14 14 13 13 13 13 12 12 12 12 12 11 11 11
18 17 17 17 16 16 16 16 16 15 15 15 15 15 15 14 14 14 14 14 14 14 14 14 14 13 13 13 13 13 13 13 13 13 12 12 12 11 11 11 11 11 11
17 17 17 16 16 16 16 16 15 15 15 15 14 14 14 14 14 14 14 14 14 13 13 13 13 13 13 13 13 13 12 12 12 12 12 11 11 11 11 11 11 11 10
17 17 16 16 16 16 16 15 15 15 14 14 14 14 14 13 13 13 13 13 13 13 13 12 12 12 12 12 12 12 12 12 11 11 11 11 11 10 10 10 10 10 10
17 17 16 16 16 16 15 15 15 15 14 14 13 13 13 13 13 13 13 13 13 12 12 12 12 11 11 11 12 12 11 11 11 11 10 10 10 10 10 10 10 10 9
17 16 16 16 15 15 15 15 14 14 14 13 13 13 13 13 12 12 12 12 12 12 12 11 11 11 11 11 11 11 11 10 10 10 10 10 9 9 9 9 9 9 9
16 16 15 15 15 15 14 14 14 14 13 13 13 12 12 12 12 12 12 12 12 11 11 11 10 10 10 10 10 10 10 10 10 10 9 9 9 9 9 8 8 8 8
16 15 15 14 14 14 14 14 13 13 13 13 12 12 12 12 11 11 11 11 11 11 10 10 10 10 10 10 10 9 9 9 9 9 9 9 9 8 8 8 8 8 8
15 15 14 14 14 13 13 13 13 13 13 12 12 12 11 11 11 11 11 10 10 10 10 10 9 9 9 9 9 9 9 9 9 9 8 8 8 8 8 8 8 8 7
15 14 14 13 13 13 13 13 13 12 12 12 12 11 11 11 10 10 10 10 10 10 10 9 9 9 9 9 9 9 9 9 8 8 8 8 8 8 7 7 7 7 7
14 14 13 13 13 13 13 12 12 12 12 11 11 11 11 10 10 10 10 10 9 9 9 9 9 9 9 8 8 8 8 8 8 8 8 8 7 7 7 7 7 7 7
14 14 13 13 13 13 12 12 12 11 11 11 10 10 10 10 10 9 9 9 9 9 9 9 8 8 8 8 8 8 8 7 7 7 7 7 7 7 7 7 7 7 7
14 14 13 13 12 12 12 12 12 11 11 10 10 10 10 9 9 9 9 9 9 8 8 8 8 8 8 7 7 7 7 7 7 7 7 7 7 7 7 6 6 6 6
13 13 13 12 12 12 12 11 11 11 11 10 10 10 9 9 9 9 9 9 8 8 8 8 7 7 7 7 7 7 7 7 7 7 7 7 6 6 6 6 6 6 6
13 13 13 12 12 12 11 11 11 11 10 10 10 9 9 9 9 8 8 8 8 8 7 7 7 7 7 7 7 7 7 6 6 6 6 6 6 6 6 6 6 6 6
13 13 12 12 12 11 11 11 11 10 10 10 10 9 9 9 9 8 8 8 8 7 7 7 7 7 7 7 6 6 6 6 6 6 6 6 6 6 6 6 6 6 5
12 12 12 12 11 11 11 11 10 10 10 9 9 9 8 8 8 8 8 8 7 7 7 7 7 6 6 6 6 6 6 6 6 6 6 6 6 6 5 5 5 5 5
12 12 12 11 11 11 11 10 10 10 10 9 9 9 8 8 8 8 8 7 7 7 7 6 6 6 6 6 6 6 6 6 6 6 5 5 5 5 5 5 5 5 5
12 12 11 11 11 10 10 10 10 10 9 9 9 8 8 8 8 7 7 7 7 7 6 6 6 6 6 6 6 6 6 5 5 5 5 5 5 5 5 5 5 5 5
12 11 11 11 10 10 10 10 10 9 9 9 8 8 8 8 7 7 7 7 7 6 6 6 6 6 6 6 6 5 5 5 5 5 5 5 5 5 5 4 4 4 4
11 11 11 10 10 10 10 9 9 9 9 8 8 8 8 7 7 7 7 7 6 6 6 6 6 6 6 6 5 5 5 5 5 5 5 5 5 4 4 4 4 4 4
11 11 10 10 10 10 10 9 9 9 9 8 8 8 8 7 7 7 7 7 6 6 6 6 6 6 5 5 5 5 5 5 5 5 5 4 4 4 4 4 4 4 4
Wind_Speed
5 5 4 4 4 4 3 2 2 2 2 3 2 3 3 2 2 2 1 1 1 1 0 0 0 0 0 0 0 1 1 2 2 0 1 2 2 3 4 5 6 7 8
5 5 4 4 4 4 3 3 3 3 2 2 3 3 3 3 3 3 2 2 1 1 1 1 1 1 1 1 1 1 1 1 2 1 1 2 2 3 4 4 5 6 7
6 6 6 5 4 3 3 3 3 3 3 3 4 4 4 3 3 3 3 3 2 2 2 1 1 1 1 1 2 2 1 2 2 2 1 1 1 2 3 4 6 5 7
6 6 6 5 4 4 4 4 4 3 4 4 4 4 4 4 4 4 4 4 4 4 4 3 3 2 2 2 2 3 3 4 3 3 2 2 2 2 3 3 4 4 4
7 6 5 5 4 4 4 4 4 4 4 3 4 5 5 4 4 4 4 5 5 6 6 6 6 7 7 5 4 4 4 4 4 3 3 2 2 2 1 1 2 3 4
7 6 6 5 5 5 4 4 4 4 4 4 5 5 6 5 7 8 7 6 6 6 5 5 6 7 8 10 10 9 7 5 4 3 2 2 1 1 1 2 2 2 2
7 6 6 5 5 5 5 5 5 5 5 6 6 6 7 7 9 10 10 7 7 6 6 5 5 7 7 7 9 11 11 10 7 4 4 2 1 1 2 2 2 2 2
6 6 5 5 5 5 5 5 4 5 5 5 6 6 6 7 9 10 10 9 8 8 7 6 6 7 7 6 8 8 8 8 7 6 5 4 4 3 2 2 3 3 3
6 5 5 5 5 5 5 5 4 5 6 6 6 6 7 7 9 9 9 7 7 8 8 8 8 7 9 8 8 8 8 7 10 13 12 11 11 10 6 4 4 4 3
6 5 5 5 5 5 5 5 5 5 6 6 7 6 7 7 9 10 8 6 7 7 7 8 11 10 10 9 7 6 7 5 6 7 8 9 9 10 10 5 3 3 2
6 6 6 5 5 6 5 5 6 6 7 7 7 7 7 7 8 10 9 6 6 6 6 6 7 10 11 10 8 6 5 5 5 6 5 6 6 6 6 6 4 2 2
7 7 7 6 6 6 7 6 6 6 7 7 6 6 6 6 7 8 9 8 6 6 5 4 6 10 11 11 8 8 8 7 5 5 5 5 4 4 4 5 5 5 3
8 7 7 7 6 6 6 6 5 5 6 5 5 5 4 4 5 8 8 9 9 6 5 7 8 9 9 9 10 10 7 5 5 5 4 4 3 3 3 3 5 6 6
9 7 7 7 7 6 5 5 5 5 5 5 5 4 3 3 3 3 4 5 7 6 6 7 9 10 8 8 7 7 6 5 4 4 3 3 3 4 4 4 3 4 3
8 7 7 7 7 6 6 5 4 3 3 4 4 4 4 2 1 2 4 3 3 4 5 5 5 5 5 6 5 5 5 4 4 3 3 4 4 4 4 4 3 3 3
8 7 6 6 6 6 6 6 9 7 7 6 5 5 3 3 5 6 6 6 6 7 6 4 4 4 4 4 4 4 4 4 3 3 3 3 3 3 3 3 3 3 3
8 7 6 6 6 6 5 6 5 6 9 9 7 6 6 6 6 7 8 8 8 7 5 4 3 3 2 2 3 3 3 3 3 3 3 2 2 2 2 3 3 3 3
8 8 7 6 6 5 5 5 5 5 4 3 5 6 6 6 7 7 8 7 5 4 3 3 2 2 2 2 2 2 2 3 3 2 2 2 2 2 2 2 2 3 3
7 6 6 6 5 5 5 5 5 5 4 3 3 4 5 6 7 6 5 4 3 2 2 2 1 1 1 1 1 1 2 2 2 2 2 2 2 2 2 2 2 3 3
6 9 9 7 6 6 5 5 5 4 4 3 3 2 2 3 3 2 2 2 2 2 1 1 1 1 1 1 1 1 2 2 2 2 2 2 2 2 2 2 2 3 3
6 7 9 7 6 6 5 5 5 5 4 3 2 2 4 3 3 2 2 1 1 1 1 1 1 0 0 0 1 1 1 2 2 2 2 2 2 2 2 2 2 2 3
6 6 6 6 6 5 5 5 5 4 4 4 2 3 4 2 2 2 1 1 2 2 2 2 1 1 1 1 0 0 1 1 2 2 2 2 2 2 2 2 2 2 3
7 7 6 6 5 6 6 5 4 4 4 3 3 3 3 3 2 2 2 2 1 2 2 2 2 1 1 1 2 1 1 2 3 3 2 2 2 2 2 3 3 4 4
7 8 7 6 6 6 5 5 4 4 4 4 3 3 3 3 2 2 2 2 2 2 2 2 2 2 2 2 2 2 3 4 4 3 3 3 2 2 2 3 3 4 4
6 7 7 7 6 6 5 5 4 4 4 4 3 3 2 2 2 2 2 2 2 2 2 3 3 3 3 3 3 3 4 5 4 4 3 3 3 3 3 4 3 4 4
6 6 6 6 6 6 5 5 4 4 4 4 3 3 3 3 3 2 2 2 2 2 2 3 3 4 4 4 4 4 5 5 5 5 3 3 3 3 4 4 5 4 5
Wind_Direction
148 147 144 129 117 110 104 96 85 62 51 48 45 44 31 22 33 65 64 61 90 55 55 96 305 323 33 335 143 142 168 173 188 293 33 20 36 44 43 57 62 59 54
138 133 130 118 114 114 112 97 86 74 60 53 52 55 46 34 30 46 47 37 48 40 25 44 357 357 28 29 102 112 121 143 164 162 31 29 39 46 57 61 59 61 62
122 122 116 111 109 112 110 99 92 88 72 61 59 54 46 38 38 41 47 46 44 42 45 47 12 40 39 46 82 87 87 92 107 122 65 39 50 49 58 59 56 49 56
116 116 115 115 117 116 102 93 92 91 81 68 62 54 48 46 48 51 53 52 52 51 51 54 47 52 51 60 75 75 87 90 93 99 87 61 56 42 57 56 55 48 47
117 114 114 109 109 108 103 96 89 84 80 76 72 58 47 47 49 55 56 62 62 60 55 54 58 66 71 75 83 81 92 95 94 93 85 67 58 67 59 51 77 66 56
118 115 110 107 103 100 98 98 94 85 77 77 71 67 58 55 54 62 68 64 62 62 59 56 60 60 66 72 75 75 81 96 103 99 88 85 64 66 73 82 83 73 50
115 114 112 108 100 93 94 93 90 85 81 76 71 71 66 57 62 66 68 70 65 61 58 56 63 59 62 69 68 64 60 61 73 96 91 68 58 42 84 82 78 79 79
119 117 115 112 107 102 96 92 89 85 83 80 73 72 70 62 63 66 68 67 64 57 56 60 64 56 58 71 77 71 63 54 56 66 73 60 57 59 82 97 98 89 76
128 127 124 122 119 113 108 104 101 98 88 80 75 73 73 61 58 63 70 72 67 58 54 56 63 63 55 67 78 77 68 55 60 67 70 68 66 65 72 83 79 84 67
141 135 124 118 121 120 118 111 102 100 97 91 77 69 73 66 59 63 68 78 73 64 56 53 55 62 59 63 75 79 75 58 61 60 54 53 57 57 56 60 83 85 75
132 125 114 108 111 116 111 105 107 104 96 88 81 67 61 61 63 66 69 78 83 76 65 55 50 60 64 63 66 70 75 77 71 68 60 50 47 44 39 38 45 70 77
127 122 114 110 113 112 110 104 103 106 101 92 86 72 56 51 59 68 70 72 83 84 76 65 61 65 65 61 62 63 69 73 72 65 55 41 34 28 19 23 37 47 51
124 120 116 109 101 106 112 112 103 98 102 98 93 86 69 53 52 61 70 74 78 82 81 79 74 68 63 59 56 58 60 65 67 63 51 33 17 9 16 20 27 34 41
128 127 123 117 107 97 98 106 111 111 111 109 108 102 87 68 60 61 67 75 76 78 76 70 69 65 62 56 51 50 52 57 66 63 46 27 21 29 30 21 19 13 25
128 127 122 120 118 107 91 77 94 92 119 131 133 130 126 113 88 110 108 94 93 97 92 72 62 58 54 48 46 43 42 45 49 45 47 40 30 29 24 18 17 15 16
135 134 133 131 128 124 115 89 60 73 80 92 108 121 104 108 118 107 95 92 94 104 91 79 69 63 58 49 43 37 33 32 28 31 37 34 26 19 16 15 17 16 9
142 142 138 139 139 138 134 127 107 68 67 74 82 99 107 109 109 109 101 90 87 95 86 84 78 67 53 45 39 34 25 18 22 32 31 21 17 19 17 9 5 1 354
136 138 139 141 141 141 141 136 131 128 112 73 53 72 96 104 105 108 107 92 74 67 80 88 79 64 49 37 32 30 25 22 26 26 20 13 9 9 7 0 356 351 343
138 141 137 135 132 131 129 128 127 126 123 111 83 59 75 93 91 91 97 94 108 100 92 86 83 75 56 40 32 32 33 26 15 12 8 3 356 354 351 346 342 339 340
139 140 138 135 131 129 130 133 133 133 132 130 129 121 111 99 98 90 87 102 116 124 123 114 95 85 73 57 37 27 21 11 5 2 351 345 342 340 336 336 339 337 331
139 141 137 136 140 143 145 147 147 147 148 151 151 142 143 135 139 140 141 150 164 175 177 172 168 152 129 76 41 20 10 356 346 339 336 334 334 333 331 337 337 335 332
141 144 147 146 145 146 149 151 152 154 157 156 142 127 138 136 147 157 178 206 214 210 201 192 191 193 200 207 227 321 330 331 329 324 324 326 325 328 332 335 336 341 343
144 145 144 141 141 142 144 149 152 153 154 156 154 153 159 173 185 193 208 228 224 216 207 197 199 214 235 235 233 236 263 280 286 290 298 308 318 322 325 325 325 329 332
148 150 149 147 145 148 154 156 156 157 159 163 169 176 185 191 196 204 211 216 218 218 215 212 216 230 241 246 256 259 266 277 281 276 278 285 293 301 306 312 312 315 314
147 150 152 154 155 157 157 156 159 163 168 172 178 186 192 195 202 207 211 210 209 215 225 227 229 239 248 256 267 279 293 297 297 294 282 277 284 288 294 297 302 307 311
144 148 150 151 154 157 159 163 168 171 176 180 184 191 199 204 206 208 208 207 212 220 229 238 241 247 256 264 278 292 303 307 309 305 287 276 286 292 299 296 302 304 308
Height
1541 1542 1543 1544 1545 1546 1547 1547 1548 1548 1548 1548 1547 1547 1546 1545 1544 1544 1543 1543 1543 1543 1543 1543 1543 1543 1543 1543 1543 1543 1543 1544 1543 1544 1545 1546 1545 1545 1545 1544 1544 1543 1542
1540 1541 1542 1543 1544 1544 1545 1546 1546 1546 1546 1546 1545 1545 1544 1544 1543 1543 1542 1542 1541 1541 1541 1541 1541 1541 1541 1541 1541 1541 1542 1542 1542 1542 1543 1544 1544 1544 1543 1543 1542 1542 1541
1539 1540 1541 1541 1542 1543 1544 1544 1545 1545 1545 1545 1544 1544 1543 1543 1543 1542 1541 1541 1540 1539 1539 1539 1539 1540 1539 1540 1540 1540 1540 1541 1541 1541 1541 1542 1542 1542 1542 1541 1541 1540 1540
1538 1539 1540 1541 1541 1542 1543 1543 1543 1544 1544 1544 1544 1543 1543 1543 1542 1542 1541 1540 1539 1539 1539 1538 1538 1538 1538 1538 1539 1539 1539 1539 1540 1540 1540 1541 1541 1541 1541 1540 1540 1540 1539
1537 1538 1539 1540 1541 1541 1542 1542 1543 1543 1543 1543 1543 1543 1543 1543 1543 1542 1541 1540 1540 1539 1538 1538 1538 1538 1538 1538 1538 1538 1539 1539 1539 1539 1539 1540 1540 1539 1539 1539 1539 1539 1538
1537 1538 1539 1540 1540 1541 1542 1542 1542 1543 1543 1543 1544 1544 1544 1543 1543 1543 1542 1541 1540 1539 1539 1538 1538 1538 1539 1539 1538 1539 1539 1538 1538 1538 1538 1538 1539 1539 1539 1539 1539 1538 1537
1537 1538 1539 1540 1540 1541 1541 1542 1542 1543 1543 1544 1544 1544 1544 1544 1544 1544 1543 1542 1541 1540 1540 1539 1539 1539 1540 1540 1539 1539 1539 1538 1539 1538 1538 1538 1538 1539 1539 1538 1538 1537 1537
1537 1538 1539 1540 1540 1541 1542 1542 1543 1543 1544 1544 1544 1545 1545 1545 1545 1545 1544 1543 1542 1541 1541 1540 1540 1540 1541 1541 1540 1540 1539 1539 1539 1538 1538 1538 1539 1539 1538 1538 1538 1538 1537
1536 1538 1539 1539 1540 1541 1541 1542 1543 1543 1544 1544 1545 1545 1546 1546 1546 1546 1545 1544 1543 1543 1543 1543 1542 1542 1542 1542 1541 1540 1540 1540 1540 1539 1539 1539 1539 1539 1539 1538 1538 1537 1536
1535 1537 1538 1539 1540 1541 1541 1542 1543 1544 1544 1545 1545 1546 1546 1546 1547 1546 1546 1545 1545 1544 1544 1544 1544 1544 1544 1544 1543 1542 1541 1542 1541 1541 1541 1540 1540 1539 1539 1538 1538 1537 1536
1535 1536 1538 1539 1540 1541 1541 1542 1543 1544 1545 1545 1546 1547 1547 1547 1547 1547 1547 1547 1546 1546 1546 1546 1546 1546 1545 1545 1544 1544 1543 1543 1543 1542 1542 1542 1541 1540 1540 1539 1538 1538 1537
1534 1536 1537 1539 1540 1541 1542 1543 1544 1545 1545 1546 1547 1548 1548 1549 1549 1549 1549 1548 1548 1548 1547 1548 1548 1548 1547 1547 1546 1546 1545 1545 1545 1544 1543 1543 1542 1541 1540 1540 1539 1538 1537
1534 1535 1537 1539 1541 1542 1543 1544 1545 1546 1546 1547 1548 1548 1549 1550 1550 1550 1550 1550 1550 1549 1549 1549 1549 1549 1549 1548 1548 1547 1547 1547 1546 1545 1545 1544 1543 1543 1542 1541 1540 1539 1538
1534 1535 1537 1539 1541 1542 1544 1545 1546 1547 1547 1548 1549 1549 1550 1551 1551 1552 1552 1552 1552 1551 1551 1551 1551 1551 1550 1550 1549 1549 1548 1548 1547 1547 1546 1546 1545 1544 1543 1542 1541 1540 1538
1534 1536 1538 1540 1542 1543 1544 1545 1546 1547 1548 1549 1550 1551 1551 1552 1553 1553 1553 1553 1553 1553 1553 1552 1552 1552 1551 1551 1550 1550 1550 1549 1548 1548 1547 1546 1546 1544 1543 1542 1541 1540 1539
1534 1536 1538 1540 1542 1543 1545 1546 1547 1548 1549 1550 1551 1552 1553 1554 1554 1554 1554 1554 1554 1554 1554 1553 1553 1553 1552 1552 1552 1551 1550 1550 1549 1549 1548 1547 1546 1545 1544 1543 1542 1541 1539
1535 1536 1538 1540 1542 1543 1545 1546 1547 1549 1550 1551 1552 1553 1554 1554 1555 1555 1555 1555 1555 1555 1555 1554 1554 1554 1554 1553 1553 1552 1551 1550 1550 1549 1548 1547 1546 1545 1544 1543 1542 1540 1539
1534 1536 1538 1540 1542 1544 1545 1547 1548 1549 1550 1552 1553 1554 1554 1555 1555 1555 1556 1556 1555 1555 1555 1555 1555 1555 1554 1554 1553 1552 1552 1551 1550 1549 1548 1547 1546 1545 1544 1543 1541 1540 1539
1534 1536 1538 1540 1542 1544 1546 1547 1549 1550 1551 1552 1553 1554 1555 1555 1556 1556 1556 1556 1555 1555 1555 1555 1555 1555 1554 1554 1553 1552 1551 1550 1550 1549 1548 1547 1546 1544 1543 1542 1541 1539 1538
1533 1536 1538 1540 1542 1544 1546 1547 1549 1550 1551 1552 1553 1554 1555 1555 1556 1556 1556 1556 1556 1556 1556 1555 1555 1555 1554 1554 1553 1552 1551 1550 1549 1548 1547 1546 1545 1543 1542 1540 1539 1538 1536
1533 1535 1537 1540 1542 1544 1545 1547 1548 1550 1551 1552 1553 1554 1555 1555 1556 1556 1556 1556 1556 1556 1556 1555 1555 1555 1554 1553 1552 1551 1550 1549 1548 1547 1546 1545 1544 1542 1541 1539 1538 1536 1535
1532 1535 1537 1539 1541 1543 1545 1547 1548 1550 1551 1552 1553 1553 1554 1555 1555 1556 1556 1556 1556 1556 1555 1555 1555 1554 1553 1552 1551 1550 1549 1548 1547 1546 1545 1544 1543 1541 1540 1538 1537 1535 1533
1533 1535 1537 1539 1541 1543 1545 1546 1548 1549 1551 1552 1553 1553 1554 1554 1555 1555 1555 1555 1555 1555 1555 1554 1554 1553 1552 1552 1551 1550 1549 1547 1546 1545 1544 1543 1541 1540 1538 1537 1535 1533 1532
1532 1534 1536 1538 1540 1543 1544 1546 1547 1549 1550 1551 1552 1553 1553 1554 1554 1555 1555 1554 1554 1554 1554 1553 1552 1552 1551 1550 1549 1549 1548 1546 1545 1544 1543 1541 1540 1538 1537 1535 1534 1532 1530
1532 1534 1536 1538 1540 1542 1544 1546 1547 1548 1550 1550 1551 1552 1553 1553 1554 1554 1554 1554 1554 1553 1553 1552 1551 1551 1550 1549 1548 1547 1546 1545 1544 1543 1542 1540 1538 1537 1535 1534 1532 1530 1528
1532 1534 1536 1538 1540 1541 1543 1545 1546 1548 1549 1550 1551 1551 1552 1552 1553 1553 1553 1553 1552 1552 1551 1551 1550 1549 1548 1548 1547 1546 1545 1543 1542 1541 1540 1538 1536 1535 1533 1532 1530 1528 1526